STARLINK-34476

Last updated on Thu Jul 03 2025 00:02:06 GMT+0000 (Coordinated Universal Time)

1 64364U 25126W 25183.58335648 -.01411140 00000+0 -17059-1 0 9996 2 64364 69.9994 310.1930 0003142 266.3046 334.9991 15.63227868 4320
UTC large
Height (km)
Speed (km/s)
/
Latitude / Longitude
Inclination (degrees)
Orbital Period (minutes)
Azimuth
Elevation
Range (km)
Doppler Factor

Next 0 passes for location: London (51.5072 / 0.1276)

Sorry there are no passes over London.